Tracking 21611 objects as of 21-Oct-2020
HD Live streaming from Space Station
objects crossing your sky now

CRYOCUBE

Track CRYOCUBE now!
10-day predictions
CRYOCUBE is classified as:


NORAD ID: 45258
Int'l Code: 1998-067RB
Perigee: 413.8 km
Apogee: 422.2 km
Inclination: 51.6 °
Period: 92.8 minutes
Semi major axis: 6789 km
RCS: Unknown
Launch date: November 20, 1998
Source: United States (US)
Launch site: TYURATAM MISSILE AND SPACE COMPLEX (TTMTR)

Uplink (MHz):
Downlink (MHz): 437.350/2402.500
Beacon (MHz):
Mode: 9600bps GMSK
Call sign: WJ2XOY
Status: Inactive

aabbcc
Your satellite tracking list
Your tracking list is empty




NASA's NSSDC Master Catalog

Two Line Element Set (TLE):
1 45258U 98067RB  20294.73779655 +.00007496 +00000-0 +12976-3 0  9994
2 45258 051.6409 084.1820 0006193 088.2632 271.9067 15.52002647037927
Source of the keplerian elements: AFSPC